Time,TemperatureF,DewpointF,PressureIn,WindDirection,WindDirectionDegrees,WindSpeedMPH,WindSpeedGustMPH,Humidity,HourlyPrecipIn,Conditions,Clouds,dailyrainin,SoftwareType,DateUTC
2013-08-30 00:12:00,59.4,59.0,30.00,SW,223,0.0,0.0,98,0.00,,,0.00,weatherlink.com 1.10,2013-08-30 04:12:00,
2013-08-30 00:27:00,59.4,59.0,30.00,SW,223,0.0,0.0,98,0.00,,,0.00,weatherlink.com 1.10,2013-08-30 04:27:00,
2013-08-30 00:42:00,59.6,59.0,30.00,SW,223,0.0,2.0,98,0.00,,,0.00,weatherlink.com 1.10,2013-08-30 04:42:00,
2013-08-30 00:57:00,59.5,59.0,30.00,SW,223,0.0,2.0,98,0.00,,,0.00,weatherlink.com 1.10,2013-08-30 04:57:00,
2013-08-30 01:13:00,59.7,59.0,29.99,West,268,1.0,2.0,98,0.00,,,0.00,weatherlink.com 1.10,2013-08-30 05:13:00,
2013-08-30 01:28:00,59.9,60.0,29.99,NW,317,0.0,3.0,99,0.00,,,0.00,weatherlink.com 1.10,2013-08-30 05:28:00,
2013-08-30 01:43:00,60.0,60.0,29.98,NW,321,0.0,2.0,99,0.00,,,0.00,weatherlink.com 1.10,2013-08-30 05:43:00,
2013-08-30 01:58:00,60.0,60.0,29.98,NW,321,0.0,0.0,99,0.00,,,0.00,weatherlink.com 1.10,2013-08-30 05:58:00,
2013-08-30 02:13:00,60.0,60.0,29.97,NW,321,0.0,0.0,99,0.00,,,0.00,weatherlink.com 1.10,2013-08-30 06:13:00,
2013-08-30 02:28:00,59.9,60.0,29.96,NW,321,0.0,1.0,99,0.00,,,0.00,weatherlink.com 1.10,2013-08-30 06:28:00,
2013-08-30 02:43:00,59.9,60.0,29.96,NW,321,0.0,1.0,99,0.00,,,0.00,weatherlink.com 1.10,2013-08-30 06:43:00,
2013-08-30 02:58:00,59.8,60.0,29.95,NW,321,0.0,0.0,99,0.00,,,0.00,weatherlink.com 1.10,2013-08-30 06:58:00,
2013-08-30 03:12:00,59.4,59.0,29.95,NW,321,0.0,0.0,98,0.00,,,0.00,weatherlink.com 1.10,2013-08-30 07:12:00,
2013-08-30 03:27:00,59.1,59.0,29.95,NW,321,0.0,0.0,98,0.00,,,0.00,weatherlink.com 1.10,2013-08-30 07:27:00,
2013-08-30 03:42:00,59.1,59.0,29.95,NW,321,0.0,1.0,99,0.00,,,0.00,weatherlink.com 1.10,2013-08-30 07:42:00,
2013-08-30 03:57:00,59.0,59.0,29.94,NW,321,0.0,0.0,99,0.00,,,0.00,weatherlink.com 1.10,2013-08-30 07:57:00,
2013-08-30 04:13:00,59.1,59.0,29.94,NW,321,0.0,0.0,99,0.00,,,0.00,weatherlink.com 1.10,2013-08-30 08:13:00,
2013-08-30 04:29:00,59.2,59.0,29.94,NW,321,0.0,0.0,99,0.00,,,0.00,weatherlink.com 1.10,2013-08-30 08:29:00,
2013-08-30 04:43:00,59.3,59.0,29.94,NW,321,0.0,0.0,99,0.00,,,0.00,weatherlink.com 1.10,2013-08-30 08:43:00,
2013-08-30 04:58:00,59.4,59.0,29.94,NW,321,0.0,1.0,99,0.00,,,0.00,weatherlink.com 1.10,2013-08-30 08:58:00,
2013-08-30 05:13:00,59.3,59.0,29.93,NW,321,0.0,0.0,99,0.00,,,0.00,weatherlink.com 1.10,2013-08-30 09:13:00,
2013-08-30 05:28:00,59.2,59.0,29.93,NW,321,0.0,0.0,99,0.00,,,0.00,weatherlink.com 1.10,2013-08-30 09:28:00,
2013-08-30 05:43:00,59.0,59.0,29.94,NW,321,0.0,0.0,99,0.00,,,0.00,weatherlink.com 1.10,2013-08-30 09:43:00,
2013-08-30 05:58:00,58.9,59.0,29.93,NW,321,0.0,2.0,99,0.00,,,0.00,weatherlink.com 1.10,2013-08-30 09:58:00,
2013-08-30 06:13:00,59.0,59.0,29.93,NW,321,1.0,1.0,99,0.00,,,0.00,weatherlink.com 1.10,2013-08-30 10:13:00,
2013-08-30 06:28:00,59.0,59.0,29.93,NW,321,0.0,1.0,99,0.00,,,0.00,weatherlink.com 1.10,2013-08-30 10:28:00,
2013-08-30 06:44:00,59.1,59.0,29.93,NW,321,0.0,1.0,99,0.00,,,0.00,weatherlink.com 1.10,2013-08-30 10:44:00,
2013-08-30 06:58:00,59.1,59.0,29.94,WNW,286,0.0,0.0,99,0.00,,,0.00,weatherlink.com 1.10,2013-08-30 10:58:00,
2013-08-30 07:13:00,59.4,59.0,29.94,WNW,286,0.0,1.0,99,0.00,,,0.00,weatherlink.com 1.10,2013-08-30 11:13:00,
2013-08-30 07:29:00,59.6,59.0,29.94,WNW,286,0.0,0.0,99,0.00,,,0.00,weatherlink.com 1.10,2013-08-30 11:29:00,
2013-08-30 07:44:00,59.9,60.0,29.93,WNW,286,0.0,1.0,99,0.00,,,0.00,weatherlink.com 1.10,2013-08-30 11:44:00,
2013-08-30 07:59:00,60.2,60.0,29.93,WNW,286,0.0,0.0,99,0.00,,,0.00,weatherlink.com 1.10,2013-08-30 11:59:00,
2013-08-30 08:14:00,60.9,61.0,29.93,WNW,286,0.0,0.0,99,0.00,,,0.00,weatherlink.com 1.10,2013-08-30 12:14:00,
2013-08-30 08:29:00,61.4,61.0,29.93,WNW,286,0.0,1.0,99,0.00,,,0.00,weatherlink.com 1.10,2013-08-30 12:29:00,
2013-08-30 08:44:00,61.7,62.0,29.93,WNW,286,0.0,1.0,99,0.00,,,0.00,weatherlink.com 1.10,2013-08-30 12:44:00,
2013-08-30 08:59:00,62.5,62.0,29.94,WNW,286,0.0,1.0,99,0.00,,,0.00,weatherlink.com 1.10,2013-08-30 12:59:00,
2013-08-30 09:13:00,63.1,63.0,29.93,WNW,286,0.0,1.0,99,0.00,,,0.00,weatherlink.com 1.10,2013-08-30 13:13:00,
2013-08-30 09:29:00,64.3,64.0,29.93,SW,235,0.0,3.0,98,0.00,,,0.00,weatherlink.com 1.10,2013-08-30 13:29:00,
2013-08-30 09:44:00,65.8,64.0,29.93,SSW,200,0.0,2.0,95,0.00,,,0.00,weatherlink.com 1.10,2013-08-30 13:44:00,
2013-08-30 09:59:00,67.4,65.0,29.92,West,272,0.0,3.0,92,0.00,,,0.00,weatherlink.com 1.10,2013-08-30 13:59:00,
2013-08-30 10:14:00,68.6,66.0,29.92,West,271,0.0,2.0,90,0.00,,,0.00,weatherlink.com 1.10,2013-08-30 14:14:00,
2013-08-30 10:29:00,69.4,66.0,29.91,West,278,0.0,1.0,88,0.00,,,0.00,weatherlink.com 1.10,2013-08-30 14:29:00,
2013-08-30 10:44:00,70.5,67.0,29.91,NW,304,0.0,2.0,87,0.00,,,0.00,weatherlink.com 1.10,2013-08-30 14:44:00,
2013-08-30 10:59:00,71.0,66.0,29.90,SE,142,0.0,3.0,85,0.00,,,0.00,weatherlink.com 1.10,2013-08-30 14:59:00,
2013-08-30 11:14:00,72.8,67.0,29.90,East,94,1.0,4.0,81,0.00,,,0.00,weatherlink.com 1.10,2013-08-30 15:14:00,
2013-08-30 11:29:00,73.5,66.0,29.89,NW,322,2.0,6.0,78,0.00,,,0.00,weatherlink.com 1.10,2013-08-30 15:29:00,
2013-08-30 11:44:00,74.2,67.0,29.89,NNE,18,4.0,7.0,77,0.00,,,0.00,weatherlink.com 1.10,2013-08-30 15:44:00,
2013-08-30 11:59:00,75.3,67.0,29.88,West,271,1.0,7.0,76,0.00,,,0.00,weatherlink.com 1.10,2013-08-30 15:59:00,
2013-08-30 12:15:00,75.8,68.0,29.87,NNW,344,2.0,7.0,76,0.00,,,0.00,weatherlink.com 1.10,2013-08-30 16:15:00,
2013-08-30 12:30:00,77.0,68.0,29.86,WSW,253,2.0,5.0,73,0.00,,,0.00,weatherlink.com 1.10,2013-08-30 16:30:00,
2013-08-30 12:45:00,78.3,69.0,29.86,West,262,2.0,5.0,73,0.00,,,0.00,weatherlink.com 1.10,2013-08-30 16:45:00,
2013-08-30 13:00:00,78.6,67.0,29.86,North,355,3.0,7.0,68,0.00,,,0.00,weatherlink.com 1.10,2013-08-30 17:00:00,
2013-08-30 13:15:00,79.7,69.0,29.85,NNW,339,3.0,6.0,69,0.00,,,0.00,weatherlink.com 1.10,2013-08-30 17:15:00,
2013-08-30 13:30:00,81.0,68.0,29.85,NNE,20,7.0,7.0,65,0.00,,,0.00,weatherlink.com 1.10,2013-08-30 17:30:00,
2013-08-30 13:45:00,80.7,68.0,29.84,NNW,346,1.0,5.0,65,0.00,,,0.00,weatherlink.com 1.10,2013-08-30 17:45:00,
2013-08-30 14:00:00,80.2,67.0,29.83,SSW,207,3.0,7.0,65,0.00,,,0.00,weatherlink.com 1.10,2013-08-30 18:00:00,
2013-08-30 14:15:00,81.0,68.0,29.83,WNW,302,3.0,6.0,65,0.00,,,0.00,weatherlink.com 1.10,2013-08-30 18:15:00,
2013-08-30 14:30:00,82.1,67.0,29.82,NW,307,3.0,6.0,61,0.00,,,0.00,weatherlink.com 1.10,2013-08-30 18:30:00,
2013-08-30 14:46:00,81.9,66.0,29.82,WSW,238,4.0,8.0,59,0.00,,,0.00,weatherlink.com 1.10,2013-08-30 18:46:00,
2013-08-30 15:01:00,82.7,67.0,29.81,North,10,0.0,5.0,59,0.00,,,0.00,weatherlink.com 1.10,2013-08-30 19:01:00,
2013-08-30 15:16:00,83.2,69.0,29.80,West,265,1.0,6.0,62,0.00,,,0.00,weatherlink.com 1.10,2013-08-30 19:16:00,
2013-08-30 15:31:00,82.6,66.0,29.80,SE,132,1.0,6.0,57,0.00,,,0.00,weatherlink.com 1.10,2013-08-30 19:31:00,
2013-08-30 15:46:00,83.3,66.0,29.80,West,279,4.0,6.0,57,0.00,,,0.00,weatherlink.com 1.10,2013-08-30 19:46:00,
2013-08-30 16:01:00,83.8,68.0,29.79,SSW,204,1.0,5.0,60,0.00,,,0.00,weatherlink.com 1.10,2013-08-30 20:01:00,
2013-08-30 16:16:00,84.2,68.0,29.79,North,360,1.0,4.0,59,0.00,,,0.00,weatherlink.com 1.10,2013-08-30 20:16:00,
2013-08-30 16:31:00,83.5,67.0,29.79,NNW,346,3.0,7.0,57,0.00,,,0.00,weatherlink.com 1.10,2013-08-30 20:31:00,
2013-08-30 16:46:00,82.9,66.0,29.79,NW,320,3.0,8.0,57,0.00,,,0.00,weatherlink.com 1.10,2013-08-30 20:46:00,
2013-08-30 17:01:00,82.6,69.0,29.79,West,280,1.0,3.0,64,0.00,,,0.00,weatherlink.com 1.10,2013-08-30 21:01:00,
2013-08-30 17:16:00,82.3,69.0,29.78,NW,306,0.0,4.0,64,0.00,,,0.00,weatherlink.com 1.10,2013-08-30 21:16:00,
2013-08-30 17:31:00,80.6,69.0,29.78,NW,309,0.0,2.0,68,0.00,,,0.00,weatherlink.com 1.10,2013-08-30 21:31:00,
2013-08-30 17:46:00,79.6,69.0,29.77,NW,309,0.0,3.0,71,0.00,,,0.00,weatherlink.com 1.10,2013-08-30 21:46:00,
2013-08-30 18:02:00,78.5,69.0,29.78,NW,309,0.0,3.0,72,0.00,,,0.00,weatherlink.com 1.10,2013-08-30 22:02:00,
2013-08-30 18:17:00,77.8,69.0,29.77,NW,309,0.0,2.0,74,0.00,,,0.00,weatherlink.com 1.10,2013-08-30 22:17:00,
2013-08-30 18:32:00,76.7,69.0,29.78,NW,309,0.0,2.0,77,0.00,,,0.00,weatherlink.com 1.10,2013-08-30 22:32:00,
2013-08-30 18:47:00,76.0,68.0,29.78,NW,309,1.0,2.0,76,0.00,,,0.00,weatherlink.com 1.10,2013-08-30 22:47:00,
2013-08-30 19:02:00,75.3,68.0,29.78,NW,309,1.0,2.0,78,0.00,,,0.00,weatherlink.com 1.10,2013-08-30 23:02:00,
2013-08-30 19:17:00,74.5,68.0,29.78,NW,309,0.0,2.0,79,0.00,,,0.00,weatherlink.com 1.10,2013-08-30 23:17:00,
2013-08-30 19:32:00,74.4,67.0,29.78,NW,309,0.0,1.0,78,0.00,,,0.00,weatherlink.com 1.10,2013-08-30 23:32:00,
2013-08-30 19:47:00,74.1,67.0,29.78,NW,309,0.0,0.0,79,0.00,,,0.00,weatherlink.com 1.10,2013-08-30 23:47:00,
2013-08-30 20:02:00,73.9,67.0,29.78,SW,222,0.0,3.0,80,0.00,,,0.00,weatherlink.com 1.10,2013-08-31 00:02:00,
2013-08-30 20:17:00,73.9,67.0,29.78,North,350,1.0,2.0,80,0.00,,,0.00,weatherlink.com 1.10,2013-08-31 00:17:00,
2013-08-30 20:32:00,73.4,67.0,29.79,North,350,0.0,2.0,81,0.00,,,0.00,weatherlink.com 1.10,2013-08-31 00:32:00,
2013-08-30 20:47:00,72.8,67.0,29.78,North,350,0.0,1.0,81,0.00,,,0.00,weatherlink.com 1.10,2013-08-31 00:47:00,
2013-08-30 21:01:00,72.4,67.0,29.79,North,350,1.0,2.0,82,0.00,,,0.00,weatherlink.com 1.10,2013-08-31 01:01:00,
2013-08-30 21:16:00,72.2,67.0,29.78,North,5,1.0,2.0,84,0.00,,,0.00,weatherlink.com 1.10,2013-08-31 01:16:00,
2013-08-30 21:31:00,72.1,67.0,29.78,North,355,0.0,4.0,84,0.00,,,0.00,weatherlink.com 1.10,2013-08-31 01:31:00,
2013-08-30 21:46:00,72.0,67.0,29.78,North,5,1.0,2.0,85,0.00,,,0.00,weatherlink.com 1.10,2013-08-31 01:46:00,
2013-08-30 22:02:00,71.6,67.0,29.78,North,5,0.0,2.0,86,0.00,,,0.00,weatherlink.com 1.10,2013-08-31 02:02:00,
2013-08-30 22:17:00,71.2,67.0,29.78,North,5,0.0,1.0,87,0.00,,,0.00,weatherlink.com 1.10,2013-08-31 02:17:00,
2013-08-30 22:33:00,71.0,67.0,29.77,North,350,0.0,1.0,87,0.00,,,0.00,weatherlink.com 1.10,2013-08-31 02:33:00,
2013-08-30 22:47:00,71.0,67.0,29.78,NNW,340,0.0,1.0,87,0.00,,,0.00,weatherlink.com 1.10,2013-08-31 02:47:00,
2013-08-30 23:02:00,71.0,67.0,29.78,NNW,336,0.0,1.0,87,0.00,,,0.00,weatherlink.com 1.10,2013-08-31 03:02:00,
2013-08-30 23:17:00,70.8,67.0,29.78,NNW,336,0.0,2.0,86,0.00,,,0.00,weatherlink.com 1.10,2013-08-31 03:17:00,
2013-08-30 23:32:00,70.7,66.0,29.77,NNW,337,0.0,2.0,85,0.00,,,0.00,weatherlink.com 1.10,2013-08-31 03:32:00,
2013-08-30 23:47:00,70.3,66.0,29.77,North,355,0.0,1.0,87,0.00,,,0.00,weatherlink.com 1.10,2013-08-31 03:47:00,